Flag for U.S.A. Weather past 2 weeks in Chesapeake, Virginia, U.S.A.

Now
73 °F

Fog.


Feels Like: 68 °F
Forecast: 71 / 93 °F
Wind: No wind

Location: Chesapeake Municipal Airport

Current Time: Jul 23, 2014 at 8:36:00 AM

Latest Report: Jul 23, 2014 at 7:35 AM


Visibility: 0 mi

Pressure: 30.05 "Hg

Humidity: 100%

Dew point: 73 °F

Location of ChesapeakeLocation

Historic Weather in Chesapeake — Graph

°F

Chesapeake temperature yesterday

Maximum temperature yesterday: 84 °F (at 11:35 AM)
Minimum temperature yesterday: 70 °F (at 5:55 AM)
Average temperature yesterday: 76 °F

Past Weeks' High & Low Weather Summary

 TemperatureHumidityPressure
High93 °F (Jul 8, 3:55 PM)100% (Jul 9, 6:35 PM)30.24 "Hg (Jul 9, 6:35 PM)
Low61 °F (Jul 18, 4:55 AM)37% (Jul 18, 1:35 PM)29.75 "Hg (Jul 15, 3:15 PM)
Average77 °F80%30.06 "Hg
* Reported Jul 8 7:15 AM — Jul 23 7:15 AM, Chesapeake, Weather by CustomWeather, © 2014

Note: Actual official high and low records may vary slightly from our data, if they occured in-between our weather recording intervals... More about our weather records

Advertising

Chesapeake weather history for previous 24 hours

 ConditionsComfort  
Time TempWeatherWind HumidityBarometerVisibility
7:15 AM
Jul 23
73 °FFog.No wind94%30.05 "Hg0 mi
6:55 AM73 °FFog.No wind94%30.05 "Hg0 mi
6:15 AM73 °FFog.No wind94%30.03 "Hg0 mi
5:55 AM73 °FFog.No wind94%30.04 "Hg0 mi
5:15 AM72 °FFog.No wind100%30.05 "Hg0 mi
4:55 AM72 °FFog.No wind100%30.05 "Hg4 mi
4:15 AM72 °FFog.No wind94%30.05 "Hg1 mi
3:55 AM72 °FMostly cloudy.No wind94%30.04 "Hg7 mi
1:55 AM72 °FFog.No wind100%30.07 "Hg5 mi
1:15 AM72 °FFog.No wind100%30.08 "Hg5 mi
12:55 AM73 °FPassing clouds.No wind94%30.09 "Hg7 mi
12:15 AM73 °FFog.No wind94%30.10 "Hg5 mi
11:55 PM
Jul 22
73 °FFog.No wind94%30.10 "Hg5 mi
11:15 PM73 °FClear.No wind100%30.10 "Hg7 mi
10:55 PM75 °FClear.No wind94%30.10 "Hg7 mi
10:35 PM75 °FClear.No wind94%30.10 "Hg7 mi
10:15 PM75 °FClear.No wind94%30.10 "Hg7 mi
9:55 PM75 °FClear.3 mph94%30.11 "Hg7 mi
9:35 PM75 °FClear.No wind94%30.11 "Hg10 mi
9:15 PM77 °FFog.3 mph89%30.10 "Hg5 mi
8:55 PM77 °FSunny.No wind89%30.11 "Hg7 mi
8:35 PM79 °FSunny.No wind84%30.10 "Hg7 mi
7:55 PM79 °FSunny.No wind84%30.10 "Hg7 mi
12:55 PM84 °FScattered clouds.8 mph66%30.16 "Hg7 mi
12:15 PM84 °FScattered clouds.9 mph66%30.17 "Hg7 mi
11:55 AM84 °FScattered clouds.6 mph66%30.17 "Hg7 mi
11:35 AM84 °FBroken clouds.6 mph66%30.17 "Hg7 mi
11:15 AM82 °FScattered clouds.6 mph70%30.18 "Hg10 mi
10:55 AM82 °FScattered clouds.6 mph70%30.17 "Hg7 mi
10:15 AM81 °FScattered clouds.7 mph74%30.17 "Hg10 mi
9:55 AM81 °FScattered clouds.7 mph74%30.17 "Hg10 mi
9:15 AM81 °FSunny.8 mph74%30.18 "Hg7 mi
8:55 AM79 °FSunny.7 mph79%30.18 "Hg10 mi
8:35 AM79 °FSunny.8 mph79%30.19 "Hg10 mi
8:15 AM77 °FFog.7 mph89%30.19 "Hg5 mi
Weather by CustomWeather, © 2014

See weather overviewHow to use our weather pages